TRSI-3 (52418 NORAD) Tracking and Keplerian Element Data

This shows tracking and keplerian element data for the satellite.

Feedback or suggestion? Click here.




ElementValue
Catalog52418
NameTRSI-3
Epoch Orbit801
Epoch Day166.23671338
Epoch Year2022
RAAN251.151
Inclination97.4493
Eccentricity0.0009874
Argument of Perigee178.8325
Mean Anonmoly181.2931
Mean Motion15.13186858
Decay Rate7.982E-05
L11 52418U 22047AA 22166.23671338 .00007982 00000+0 45275-3 0 9996
L22 52418 97.4493 251.1510 0009874 178.8325 181.2931 15.13186858 8015

Live tracking and technical data element details for TRSI-3 (NORAD 52418). TRSI-3 can be tracked NOW for your location showing map with azimuth and elevation plus other details from your city location.

Track the satellite on the map from your city or location and see movement details for azimuth, elevation, latitude, longitude, range, height, and movement on the map or in text.







IsCatalogInMostPopularTable: catalog: 52418, numindb: 1
Update: records affected: 1



GetName: 52418 TRSI-3

Hit Count: updated at: Sat, 25 Jun 2022 05:31:16 GMT